TimeCDT,TemperatureF,Dew PointF,Humidity,Sea Level PressureIn,VisibilityMPH,Wind Direction,Wind SpeedMPH,Gust SpeedMPH,PrecipitationIn,Events,Conditions,WindDirDegrees,DateUTC
12:15 AM,45.1,43.7,95,29.85,10.0,Calm,Calm,-,N/A,,Clear,0,2013-09-21 05:15:00
12:35 AM,44.8,43.5,95,29.85,10.0,Calm,Calm,-,N/A,,Clear,0,2013-09-21 05:35:00
12:55 AM,44.2,43.2,96,29.84,10.0,Calm,Calm,-,N/A,,Clear,0,2013-09-21 05:55:00
1:15 AM,43.9,42.8,96,29.85,10.0,Calm,Calm,-,N/A,,Clear,0,2013-09-21 06:15:00
1:35 AM,43.3,42.6,97,29.85,10.0,Calm,Calm,-,N/A,,Scattered Clouds,0,2013-09-21 06:35:00
1:55 AM,43.7,42.8,97,29.86,10.0,Calm,Calm,-,N/A,,Mostly Cloudy,0,2013-09-21 06:55:00
2:15 AM,44.1,43.2,97,29.86,10.0,West,3.5,-,N/A,,Overcast,280,2013-09-21 07:15:00
2:35 AM,45.0,43.7,95,29.85,10.0,Calm,Calm,-,N/A,,Overcast,0,2013-09-21 07:35:00
2:55 AM,45.5,43.9,94,29.85,10.0,Calm,Calm,-,N/A,,Overcast,0,2013-09-21 07:55:00
3:15 AM,45.9,44.2,94,29.85,10.0,Calm,Calm,-,N/A,,Overcast,0,2013-09-21 08:15:00
3:35 AM,46.0,44.6,95,29.85,10.0,Calm,Calm,-,N/A,,Overcast,0,2013-09-21 08:35:00
3:55 AM,46.4,44.4,93,29.86,10.0,WNW,3.5,-,N/A,,Overcast,290,2013-09-21 08:55:00
4:15 AM,46.0,44.4,94,29.86,10.0,WNW,3.5,-,N/A,,Overcast,290,2013-09-21 09:15:00
4:35 AM,46.4,44.2,92,29.86,10.0,WNW,4.6,-,N/A,,Overcast,300,2013-09-21 09:35:00
4:55 AM,46.4,44.1,92,29.87,10.0,WNW,3.5,-,N/A,,Overcast,300,2013-09-21 09:55:00
5:15 AM,46.4,43.9,91,29.87,10.0,WNW,3.5,-,N/A,,Overcast,300,2013-09-21 10:15:00
5:35 AM,46.4,43.7,90,29.87,10.0,NW,4.6,-,N/A,,Overcast,310,2013-09-21 10:35:00
5:55 AM,46.4,43.5,90,29.87,10.0,NW,3.5,-,N/A,,Overcast,310,2013-09-21 10:55:00
6:15 AM,46.0,43.2,90,29.88,10.0,NW,3.5,-,N/A,,Overcast,310,2013-09-21 11:15:00
6:35 AM,45.9,43.0,90,29.88,10.0,WNW,5.8,-,N/A,,Overcast,300,2013-09-21 11:35:00
6:55 AM,45.5,42.8,90,29.89,10.0,NW,5.8,-,N/A,,Overcast,320,2013-09-21 11:55:00
7:15 AM,45.5,42.1,88,29.89,10.0,NW,5.8,-,N/A,,Overcast,310,2013-09-21 12:15:00
7:35 AM,45.5,41.9,87,29.89,10.0,NW,6.9,-,N/A,,Overcast,320,2013-09-21 12:35:00
7:55 AM,45.7,41.9,87,29.89,10.0,NW,8.1,-,N/A,,Overcast,320,2013-09-21 12:55:00
8:15 AM,45.5,41.7,87,29.90,10.0,NW,6.9,-,N/A,,Overcast,310,2013-09-21 13:15:00
8:35 AM,44.8,42.1,90,29.91,4.0,NNW,6.9,-,N/A,,Overcast,340,2013-09-21 13:35:00
8:55 AM,43.3,42.1,95,29.92,3.0,NNW,9.2,-,N/A,,Drizzle,340,2013-09-21 13:55:00
9:15 AM,43.7,42.3,95,29.92,3.0,NNW,5.8,-,N/A,,Light Drizzle,340,2013-09-21 14:15:00
9:35 AM,44.6,43.0,94,29.92,10.0,North,4.6,-,N/A,,Overcast,350,2013-09-21 14:35:00
9:55 AM,44.4,42.1,91,29.92,10.0,NNW,5.8,-,N/A,,Overcast,340,2013-09-21 14:55:00
10:15 AM,44.8,41.2,87,29.93,10.0,NNW,6.9,-,N/A,,Overcast,340,2013-09-21 15:15:00
10:35 AM,45.0,40.6,85,29.93,10.0,NNW,6.9,-,N/A,,Overcast,340,2013-09-21 15:35:00
10:55 AM,45.5,39.7,80,29.93,10.0,NNW,5.8,-,N/A,,Overcast,340,2013-09-21 15:55:00
11:15 AM,46.0,39.0,76,29.93,10.0,NW,8.1,-,N/A,,Overcast,320,2013-09-21 16:15:00
11:35 AM,47.3,39.0,73,29.93,10.0,NW,8.1,-,N/A,,Mostly Cloudy,320,2013-09-21 16:35:00
11:55 AM,48.9,38.5,67,29.93,10.0,North,8.1,-,N/A,,Mostly Cloudy,350,2013-09-21 16:55:00
12:15 PM,50.2,38.5,64,29.92,10.0,NNW,8.1,-,N/A,,Mostly Cloudy,340,2013-09-21 17:15:00
12:35 PM,50.9,37.8,61,29.93,10.0,NNW,8.1,-,N/A,,Mostly Cloudy,330,2013-09-21 17:35:00
12:55 PM,52.5,39.0,60,29.92,10.0,NW,6.9,-,N/A,,Mostly Cloudy,310,2013-09-21 17:55:00
1:15 PM,53.1,38.8,59,29.92,10.0,North,5.8,-,N/A,,Scattered Clouds,350,2013-09-21 18:15:00
1:35 PM,53.2,39.4,59,29.92,10.0,WNW,6.9,-,N/A,,Scattered Clouds,290,2013-09-21 18:35:00
1:55 PM,52.9,38.1,57,29.92,10.0,NNW,4.6,-,N/A,,Scattered Clouds,330,2013-09-21 18:55:00
2:15 PM,54.1,38.8,56,29.92,10.0,WNW,5.8,-,N/A,,Scattered Clouds,290,2013-09-21 19:15:00
2:35 PM,54.5,39.6,57,29.92,10.0,WNW,9.2,-,N/A,,Scattered Clouds,300,2013-09-21 19:35:00
2:55 PM,54.9,39.9,57,29.91,10.0,NNW,5.8,-,N/A,,Scattered Clouds,330,2013-09-21 19:55:00
3:15 PM,55.0,39.9,57,29.91,10.0,NW,8.1,-,N/A,,Scattered Clouds,310,2013-09-21 20:15:00
3:35 PM,55.8,39.4,54,29.91,10.0,West,6.9,-,N/A,,Scattered Clouds,270,2013-09-21 20:35:00
3:55 PM,56.5,40.6,55,29.91,10.0,NNW,5.8,-,N/A,,Mostly Cloudy,340,2013-09-21 20:55:00
4:15 PM,55.9,39.4,54,29.91,10.0,NW,8.1,-,N/A,,Scattered Clouds,310,2013-09-21 21:15:00
4:35 PM,56.3,39.4,53,29.91,10.0,North,6.9,-,N/A,,Scattered Clouds,350,2013-09-21 21:35:00
4:55 PM,55.0,39.6,56,29.91,10.0,WNW,5.8,-,N/A,,Scattered Clouds,300,2013-09-21 21:55:00
5:15 PM,55.4,39.4,55,29.91,10.0,North,4.6,-,N/A,,Scattered Clouds,350,2013-09-21 22:15:00
5:35 PM,54.9,39.2,56,29.91,10.0,NNW,6.9,-,N/A,,Clear,340,2013-09-21 22:35:00
5:55 PM,54.7,40.3,58,29.91,10.0,NW,6.9,-,N/A,,Clear,320,2013-09-21 22:55:00
6:15 PM,53.8,39.7,59,29.92,10.0,NNW,4.6,-,N/A,,Clear,340,2013-09-21 23:15:00
6:35 PM,52.7,39.9,62,29.91,10.0,North,3.5,-,N/A,,Clear,360,2013-09-21 23:35:00
6:55 PM,51.1,40.3,67,29.92,10.0,Calm,Calm,-,N/A,,Clear,0,2013-09-21 23:55:00
7:15 PM,49.5,40.5,71,29.92,10.0,Calm,Calm,-,N/A,,Clear,0,2013-09-22 00:15:00
7:35 PM,47.3,40.6,78,29.92,10.0,Calm,Calm,-,N/A,,Clear,0,2013-09-22 00:35:00
7:55 PM,46.2,40.6,81,29.93,10.0,Calm,Calm,-,N/A,,Clear,0,2013-09-22 00:55:00
8:15 PM,45.0,40.6,85,29.93,10.0,Calm,Calm,-,N/A,,Clear,0,2013-09-22 01:15:00
8:35 PM,43.9,40.6,88,29.94,10.0,NE,4.6,-,N/A,,Clear,50,2013-09-22 01:35:00
8:55 PM,43.7,39.9,87,29.94,10.0,Calm,Calm,-,N/A,,Clear,0,2013-09-22 01:55:00
9:15 PM,40.8,39.6,95,29.95,10.0,Calm,Calm,-,N/A,,Clear,0,2013-09-22 02:15:00
9:35 PM,41.2,39.9,95,29.96,10.0,Calm,Calm,-,N/A,,Clear,0,2013-09-22 02:35:00
9:55 PM,40.5,39.2,95,29.96,10.0,Calm,Calm,-,N/A,,Clear,0,2013-09-22 02:55:00
10:15 PM,39.2,38.7,98,29.97,10.0,Calm,Calm,-,N/A,,Clear,0,2013-09-22 03:15:00
10:35 PM,39.4,39.0,99,29.98,10.0,Calm,Calm,-,N/A,,Clear,0,2013-09-22 03:35:00
10:55 PM,40.1,39.0,96,29.98,10.0,Calm,Calm,-,N/A,,Clear,0,2013-09-22 03:55:00
11:15 PM,38.5,37.8,97,29.98,10.0,Calm,Calm,-,N/A,,Clear,0,2013-09-22 04:15:00
11:35 PM,38.3,37.6,97,29.98,10.0,Calm,Calm,-,N/A,,Clear,0,2013-09-22 04:35:00
11:55 PM,37.8,37.0,97,29.99,10.0,Calm,Calm,-,N/A,,Clear,0,2013-09-22 04:55:00